FW0837 Weather Reports


Display with metric or nautical units.
time (UTC)temp
F
wind
direction
speed
MPH
gust
MPH
rain 1hr
in
rain 24hr
in
rain mn
in
humidity
%
barometer
mb
20260831093040 58 270 0.0 3.0 0.00 0.00 0.00 91 1019.2
20260831092538 58 269 0.0 2.0 0.00 0.00 0.00 91 1019.1
20260831092038 58 269 0.0 3.0 0.00 0.00 0.00 90 1019.1
20260831091537 59 269 0.0 3.0 0.00 0.00 0.00 90 1019.1
20260831091037 59 268 0.0 2.0 0.00 0.00 0.00 91 1018.9
20260831090537 59 268 0.0 2.0 0.00 0.00 0.00 91 1018.9
20260831090037 59 268 0.0 2.0 0.00 0.00 0.00 91 1018.9
20260831085537 59 268 0.0 2.0 0.00 0.00 0.00 90 1018.8
20260831085038 59 268 0.0 3.0 0.00 0.00 0.00 90 1018.8
20260831084534 59 268 1.0 2.0 0.00 0.00 0.00 90 1018.9
20260831084034 59 268 0.0 2.0 0.00 0.00 0.00 90 1018.8
20260831083533 59 268 0.0 3.0 0.00 0.00 0.00 90 1018.8
20260831083039 59 268 0.0 3.0 0.00 0.00 0.00 90 1018.8
20260831082535 59 268 0.0 0.0 0.00 0.00 0.00 90 1018.6
20260831082033 59 268 0.0 0.0 0.00 0.00 0.00 90 1018.7
20260831081536 60 268 0.0 0.0 0.00 0.00 0.00 90 1018.8
20260831081031 60 268 0.0 0.0 0.00 0.00 0.00 90 1018.6
20260831080530 60 268 0.0 0.0 0.00 0.00 0.00 90 1018.7
20260831080029 60 268 0.0 1.0 0.00 0.00 0.00 90 1018.5
20260831075529 60 268 0.0 1.0 0.00 0.00 0.00 90 1018.5
20260831075029 60 268 0.0 1.0 0.00 0.00 0.00 90 1018.4
20260831074528 60 268 0.0 0.0 0.00 0.00 0.00 89 1018.5
20260831074027 60 268 0.0 0.0 0.00 0.00 0.00 89 1018.4
20260831073527 60 268 0.0 0.0 0.00 0.00 0.00 89 1018.4
20260831073027 61 268 0.0 1.0 0.00 0.00 0.00 89 1018.5
20260831072526 61 268 0.0 1.0 0.00 0.00 0.00 89 1018.4
20260831072024 61 268 0.0 1.0 0.00 0.00 0.00 89 1018.2
20260831071524 61 268 0.0 1.0 0.00 0.00 0.00 88 1018.2
20260831071023 61 268 0.0 0.0 0.00 0.00 0.00 88 1018.1
20260831070523 61 268 0.0 0.0 0.00 0.00 0.00 88 1018.2
20260831070026 62 268 0.0 0.0 0.00 0.00 0.00 88 1018.1
20260831065522 62 268 0.0 0.0 0.00 0.00 0.00 87 1018.2
20260831065019 62 268 0.0 1.0 0.00 0.00 0.00 87 1018.1
20260831064518 63 268 0.0 0.0 0.00 0.00 0.00 87 1018.1
20260831064018 63 268 0.0 0.0 0.00 0.00 0.00 87 1018.1
20260831063516 63 268 0.0 0.0 0.00 0.00 0.00 87 1018.1
20260831063015 64 268 0.0 1.0 0.00 0.00 0.00 87 1018.1
20260831062514 64 268 0.0 2.0 0.00 0.00 0.00 87 1018.0
20260831062014 64 268 0.0 3.0 0.00 0.00 0.00 87 1017.9
20260831061513 64 268 1.0 3.0 0.00 0.00 0.00 86 1017.8
20260831061011 65 268 0.0 1.0 0.00 0.00 0.00 86 1017.9
20260831060510 65 268 0.0 2.0 0.00 0.00 0.00 86 1017.8
20260831060009 65 268 0.0 4.0 0.00 0.00 0.00 86 1017.7
20260831055509 65 268 1.0 7.0 0.00 0.00 0.00 86 1017.7
20260831055009 65 268 2.0 7.0 0.00 0.00 0.00 86 1017.7
20260831054507 65 264 1.0 3.0 0.00 0.00 0.00 86 1017.8
20260831054007 66 264 1.0 4.0 0.00 0.00 0.00 86 1017.7
20260831053506 66 264 1.0 4.0 0.00 0.00 0.00 86 1017.5
20260831053005 66 263 0.0 2.0 0.00 0.00 0.00 85 1017.6
20260831052504 66 263 0.0 3.0 0.00 0.00 0.00 85 1017.7
20260831052004 66 263 1.0 3.0 0.00 0.00 0.00 85 1017.7
20260831051502 66 264 0.0 6.0 0.00 0.00 0.00 85 1017.5
20260831051002 66 263 2.0 6.0 0.00 0.00 0.00 85 1017.5
20260831050502 67 282 1.0 5.0 0.00 0.00 0.00 85 1017.5
20260831050001 67 282 2.0 8.0 0.00 0.00 0.00 85 1017.5
20260831045501 67 297 1.0 8.0 0.00 0.00 0.00 84 1017.5
20260831045003 67 280 1.0 6.0 0.00 0.00 0.00 85 1017.4
20260831044606 67 282 1.0 6.0 0.00 0.00 0.00 84 1017.3
20260831044059 67 295 1.0 6.0 0.00 0.00 0.00 84 1017.3
20260831043601 67 281 0.0 8.0 0.00 0.00 0.00 85 1017.2
20260831043057 67 333 1.0 8.0 0.00 0.00 0.00 85 1017.2
20260831042556 67 288 1.0 5.0 0.00 0.00 0.00 84 1017.2
20260831042059 67 266 2.0 5.0 0.00 0.00 0.00 85 1017.1
20260831041644 67 254 1.0 4.0 0.00 0.00 0.00 84 1017.0
20260831041055 68 255 1.0 4.0 0.00 0.00 0.00 84 1017.0
20260831040553 68 226 0.0 2.0 0.00 0.00 0.00 83 1017.0
20260831040052 68 225 0.0 1.0 0.00 0.00 0.00 83 1017.0
20260831035551 68 225 0.0 2.0 0.00 0.00 0.00 82 1017.0
20260831035050 69 225 0.0 3.0 0.00 0.00 0.00 82 1017.0
20260831034550 69 226 0.0 3.0 0.00 0.00 0.00 82 1016.9
20260831034054 69 225 1.0 3.0 0.00 0.00 0.00 81 1017.0
20260831033550 69 225 1.0 3.0 0.00 0.00 0.00 81 1017.1
20260831033049 70 223 0.0 3.0 0.00 0.00 0.00 81 1017.1
20260831032549 70 224 1.0 3.0 0.00 0.00 0.00 81 1017.1
20260831032048 70 223 1.0 4.0 0.00 0.00 0.00 80 1017.2
20260831031548 70 268 0.0 5.0 0.00 0.00 0.00 80 1017.2
20260831031049 70 268 1.0 6.0 0.00 0.00 0.00 79 1017.3
20260831030552 70 338 1.0 6.0 0.00 0.00 0.00 79 1017.4
20260831030053 71 301 1.0 4.0 0.00 0.00 0.00 79 1017.3
20260831025548 71 282 1.0 6.0 0.00 0.00 0.00 79 1017.2
20260831025049 71 343 2.0 11.0 0.00 0.00 0.00 80 1017.2
20260831024600 71 203 4.0 11.0 0.00 0.00 0.00 80 1017.2
20260831024044 71 309 1.0 6.0 0.00 0.00 0.00 80 1017.1
20260831023544 71 197 2.0 6.0 0.00 0.00 0.00 81 1017.1
20260831023044 71 269 1.0 3.0 0.00 0.00 0.00 81 1017.1
20260831022544 71 269 0.0 3.0 0.00 0.00 0.00 81 1017.0
20260831022043 71 270 0.0 4.0 0.00 0.00 0.00 81 1016.9
20260831021550 71 270 0.0 4.0 0.00 0.00 0.00 81 1017.0
20260831021044 71 225 2.0 5.0 0.00 0.00 0.00 80 1017.0
20260831020544 71 256 1.0 6.0 0.00 0.00 0.00 80 1017.0
20260831020042 71 237 2.0 5.0 0.00 0.00 0.00 80 1017.0
20260831015546 71 231 2.0 4.0 0.00 0.00 0.00 80 1016.9
20260831015041 71 230 1.0 4.0 0.00 0.00 0.00 80 1016.8
20260831014540 71 229 1.0 4.0 0.00 0.00 0.00 80 1016.9
20260831014040 71 237 1.0 3.0 0.00 0.00 0.00 80 1016.9
20260831013539 71 236 1.0 3.0 0.00 0.00 0.00 80 1016.9
20260831013040 71 233 1.0 3.0 0.00 0.00 0.00 80 1016.7
20260831012539 71 232 1.0 4.0 0.00 0.00 0.00 80 1016.6
20260831012042 71 232 0.0 4.0 0.00 0.00 0.00 80 1016.5
20260831011550 71 220 0.0 4.0 0.00 0.00 0.00 79 1016.6
20260831011039 71 220 1.0 6.0 0.00 0.00 0.00 79 1016.7
20260831010538 71 216 1.0 4.0 0.00 0.00 0.00 79 1016.5
20260831010049 71 216 1.0 3.0 0.00 0.00 0.00 78 1016.4
20260831005538 72 217 1.0 5.0 0.00 0.00 0.00 77 1016.5
20260831005040 72 216 1.0 5.0 0.00 0.00 0.00 76 1016.5
20260831004538 73 230 1.0 3.0 0.00 0.00 0.00 74 1016.4
20260831004038 73 230 0.0 5.0 0.00 0.00 0.00 74 1016.3
20260831003538 73 230 2.0 5.0 0.00 0.00 0.00 73 1016.2
20260831003038 73 226 1.0 4.0 0.00 0.00 0.00 72 1016.2
20260831002537 73 218 1.0 4.0 0.00 0.00 0.00 71 1016.2
20260831002037 73 216 1.0 4.0 0.00 0.00 0.00 71 1016.1
20260831001538 73 216 2.0 7.0 0.00 0.00 0.00 70 1015.9
20260831001040 74 245 1.0 7.0 0.00 0.00 0.00 70 1015.6
20260831000537 74 213 1.0 4.0 0.00 0.00 0.00 70 1015.7
20260831000050 74 212 2.0 7.0 0.00 0.00 0.00 70 1015.8
20260830235536 74 212 1.0 7.0 0.00 0.00 0.00 70 1015.8
20260830235036 74 228 2.0 6.0 0.00 0.00 0.00 70 1015.8
20260830234538 74 234 3.0 7.0 0.00 0.00 0.00 69 1015.6
20260830234035 74 219 2.0 8.0 0.00 0.00 0.00 69 1015.7
20260830233535 74 231 1.0 8.0 0.00 0.00 0.00 69 1015.6
20260830233036 74 228 3.0 8.0 0.00 0.00 0.00 69 1015.9
20260830232536 74 200 2.0 8.0 0.00 0.00 0.00 69 1015.9
20260830232034 74 226 1.0 8.0 0.00 0.00 0.00 68 1016.0
20260830231534 75 231 3.0 6.0 0.00 0.00 0.00 68 1016.0
20260830231038 75 222 2.0 11.0 0.00 0.00 0.00 68 1015.9
20260830230533 75 222 1.0 11.0 0.00 0.00 0.00 68 1016.0
20260830230041 75 204 3.0 9.0 0.00 0.00 0.00 68 1015.9
20260830225532 75 210 2.0 9.0 0.00 0.00 0.00 68 1016.0
20260830225032 75 222 3.0 9.0 0.00 0.00 0.00 68 1016.0
20260830224531 75 202 2.0 5.0 0.00 0.00 0.00 67 1016.2
20260830224031 75 203 2.0 5.0 0.00 0.00 0.00 67 1016.2
20260830223531 75 227 2.0 6.0 0.00 0.00 0.00 67 1016.2
20260830223031 76 243 2.0 7.0 0.00 0.00 0.00 67 1016.2
20260830222529 76 221 1.0 5.0 0.00 0.00 0.00 67 1016.3
20260830222033 76 216 1.0 6.0 0.00 0.00 0.00 66 1016.3
20260830221530 76 208 2.0 10.0 0.00 0.00 0.00 66 1016.4
20260830221030 76 218 1.0 10.0 0.00 0.00 0.00 66 1016.3
20260830220529 77 193 3.0 10.0 0.00 0.00 0.00 65 1016.3
20260830220032 77 247 3.0 10.0 0.00 0.00 0.00 64 1016.3
20260830215529 77 225 4.0 15.0 0.00 0.00 0.00 63 1016.2
20260830215029 78 207 5.0 15.0 0.00 0.00 0.00 62 1016.2
20260830214530 79 203 4.0 8.0 0.00 0.00 0.00 62 1016.2
20260830214028 79 210 2.0 5.0 0.00 0.00 0.00 63 1016.2
20260830213526 78 215 2.0 10.0 0.00 0.00 0.00 63 1016.2
20260830213035 78 218 3.0 12.0 0.00 0.00 0.00 63 1016.3
20260830212526 77 232 2.0 12.0 0.00 0.00 0.00 63 1016.2
20260830212026 77 206 2.0 9.0 0.00 0.00 0.00 63 1016.4
20260830211526 77 244 3.0 9.0 0.00 0.00 0.00 63 1016.3
20260830211026 77 249 3.0 6.0 0.00 0.00 0.00 63 1016.3
20260830210526 77 228 2.0 11.0 0.00 0.00 0.00 63 1016.3
20260830210028 77 197 4.0 9.0 0.00 0.00 0.00 62 1016.4
20260830205524 78 222 1.0 7.0 0.00 0.00 0.00 64 1016.4
20260830205024 78 211 1.0 7.0 0.00 0.00 0.00 62 1016.4
20260830204524 78 239 2.0 8.0 0.00 0.00 0.00 63 1016.4
20260830204023 78 208 2.0 8.0 0.00 0.00 0.00 62 1016.5
20260830203522 78 222 3.0 8.0 0.00 0.00 0.00 62 1016.5
20260830203022 78 228 1.0 7.0 0.00 0.00 0.00 62 1016.6
20260830202525 78 212 2.0 8.0 0.00 0.00 0.00 62 1016.6
20260830202021 78 191 2.0 8.0 0.00 0.00 0.00 63 1016.6
20260830201521 77 206 2.0 6.0 0.00 0.00 0.00 63 1016.7
20260830201020 78 207 2.0 8.0 0.00 0.00 0.00 62 1016.7
20260830200520 78 220 3.0 8.0 0.00 0.00 0.00 62 1016.7
20260830200020 78 231 3.0 7.0 0.00 0.00 0.00 61 1016.8
20260830195519 78 218 3.0 7.0 0.00 0.00 0.00 62 1016.8
20260830195018 78 291 2.0 7.0 0.00 0.00 0.00 63 1016.9
20260830194520 78 229 2.0 6.0 0.00 0.00 0.00 62 1017.0
20260830194016 78 239 1.0 3.0 0.00 0.00 0.00 62 1017.1
20260830193516 78 239 1.0 4.0 0.00 0.00 0.00 62 1017.1
20260830193016 78 239 1.0 5.0 0.00 0.00 0.00 60 1017.1
20260830192514 78 239 1.0 5.0 0.00 0.00 0.00 60 1017.2
20260830192014 78 228 1.0 5.0 0.00 0.00 0.00 60 1017.3
20260830191514 79 207 2.0 4.0 0.00 0.00 0.00 58 1017.2
20260830191014 79 205 2.0 4.0 0.00 0.00 0.00 57 1017.3
20260830190514 80 268 1.0 3.0 0.00 0.00 0.00 57 1017.3
20260830190013 80 268 1.0 7.0 0.00 0.00 0.00 56 1017.3
20260830185515 80 267 1.0 7.0 0.00 0.00 0.00 56 1017.4
20260830185012 79 214 2.0 9.0 0.00 0.00 0.00 55 1017.6
20260830184515 80 202 3.0 9.0 0.00 0.00 0.00 54 1017.6
20260830184010 80 238 3.0 7.0 0.00 0.00 0.00 55 1017.6
20260830183512 80 233 2.0 12.0 0.00 0.00 0.00 55 1017.8
20260830183009 80 269 5.0 12.0 0.00 0.00 0.00 55 1017.8
20260830182509 80 216 4.0 9.0 0.00 0.00 0.00 55 1017.9
20260830182010 81 214 3.0 9.0 0.00 0.00 0.00 54 1017.9
20260830181508 82 246 3.0 9.0 0.00 0.00 0.00 52 1018.1
20260830181008 82 280 2.0 10.0 0.00 0.00 0.00 53 1018.2
20260830180505 81 247 3.0 12.0 0.00 0.00 0.00 53 1018.3
20260830180006 80 229 5.0 12.0 0.00 0.00 0.00 54 1018.4
20260830175505 80 264 5.0 11.0 0.00 0.00 0.00 55 1018.5
20260830175006 82 264 4.0 11.0 0.00 0.00 0.00 52 1018.5
20260830174505 81 254 2.0 11.0 0.00 0.00 0.00 54 1018.5
20260830174004 82 255 5.0 13.0 0.00 0.00 0.00 53 1018.4
20260830173503 80 246 5.0 13.0 0.00 0.00 0.00 55 1018.5
20260830173003 80 239 2.0 12.0 0.00 0.00 0.00 55 1018.5
20260830172504 80 218 3.0 11.0 0.00 0.00 0.00 55 1018.5
20260830172005 82 195 4.0 14.0 0.00 0.00 0.00 55 1018.5
20260830171502 79 219 6.0 14.0 0.00 0.00 0.00 56 1018.5
20260830171001 80 238 4.0 11.0 0.00 0.00 0.00 55 1018.5
20260830170601 80 230 4.0 12.0 0.00 0.00 0.00 56 1018.7
20260830170101 80 247 5.0 12.0 0.00 0.00 0.00 56 1018.7
20260830165600 79 226 5.0 13.0 0.00 0.00 0.00 57 1018.7
20260830165100 79 271 6.0 13.0 0.00 0.00 0.00 57 1018.7
20260830164600 78 235 5.0 11.0 0.00 0.00 0.00 58 1018.9
20260830164100 80 201 5.0 11.0 0.00 0.00 0.00 56 1018.8
20260830163600 80 198 5.0 10.0 0.00 0.00 0.00 57 1018.9
20260830163059 79 222 5.0 10.0 0.00 0.00 0.00 57 1018.8
20260830162558 79 216 5.0 12.0 0.00 0.00 0.00 57 1018.7
20260830162058 79 239 6.0 12.0 0.00 0.00 0.00 56 1018.8
20260830161557 80 309 3.0 13.0 0.00 0.00 0.00 57 1018.7
20260830161057 80 264 5.0 13.0 0.00 0.00 0.00 55 1018.7
20260830160557 81 257 4.0 10.0 0.00 0.00 0.00 56 1018.8
20260830160057 81 331 5.0 14.0 0.00 0.00 0.00 56 1018.7
20260830155557 81 287 6.0 14.0 0.00 0.00 0.00 53 1018.7
20260830155056 82 285 5.0 13.0 0.00 0.00 0.00 52 1018.7
20260830154555 82 280 5.0 13.0 0.00 0.00 0.00 53 1018.7
20260830154053 82 228 4.0 13.0 0.00 0.00 0.00 54 1018.7
20260830153553 81 275 7.0 13.0 0.00 0.00 0.00 54 1018.7
20260830153054 81 221 5.0 16.0 0.00 0.00 0.00 54 1018.9
20260830152551 81 260 6.0 16.0 0.00 0.00 0.00 57 1019.0
20260830152049 80 254 4.0 11.0 0.00 0.00 0.00 58 1019.1
20260830151554 80 258 5.0 11.0 0.00 0.00 0.00 60 1019.2
20260830151048 79 285 1.0 8.0 0.00 0.00 0.00 62 1019.2
20260830150546 78 207 4.0 8.0 0.00 0.00 0.00 61 1019.2
20260830150045 78 221 3.0 8.0 0.00 0.00 0.00 62 1019.2
20260830145547 78 219 3.0 9.0 0.00 0.00 0.00 61 1019.2
20260830145043 77 237 4.0 11.0 0.00 0.00 0.00 61 1019.3
20260830144547 77 220 5.0 11.0 0.00 0.00 0.00 61 1019.3
20260830144041 77 241 4.0 10.0 0.00 0.00 0.00 62 1019.2
20260830143541 77 239 3.0 9.0 0.00 0.00 0.00 63 1019.4
20260830143043 76 216 6.0 11.0 0.00 0.00 0.00 61 1019.3
20260830142539 76 233 4.0 12.0 0.00 0.00 0.00 61 1019.5
20260830142042 76 227 2.0 8.0 0.00 0.00 0.00 63 1019.7
20260830141541 76 247 2.0 8.0 0.00 0.00 0.00 63 1019.7
20260830141036 76 218 4.0 9.0 0.00 0.00 0.00 63 1019.6
20260830140534 75 241 4.0 9.0 0.00 0.00 0.00 65 1019.7
20260830140033 74 278 4.0 8.0 0.00 0.00 0.00 65 1019.7
20260830135535 73 232 2.0 9.0 0.00 0.00 0.00 67 1019.7
20260830135032 73 274 4.0 10.0 0.00 0.00 0.00 67 1019.8
20260830134538 73 209 4.0 10.0 0.00 0.00 0.00 66 1019.7
20260830134030 73 216 4.0 10.0 0.00 0.00 0.00 65 1019.8
20260830133529 73 245 2.0 7.0 0.00 0.00 0.00 68 1019.8
20260830133027 72 277 2.0 7.0 0.00 0.00 0.00 70 1019.9
20260830132527 72 214 3.0 8.0 0.00 0.00 0.00 68 1019.8
20260830132026 71 237 2.0 9.0 0.00 0.00 0.00 71 1019.7
20260830131524 70 233 2.0 9.0 0.00 0.00 0.00 74 1019.8
20260830131024 69 226 3.0 9.0 0.00 0.00 0.00 75 1019.9
20260830130523 68 221 3.0 8.0 0.00 0.00 0.00 76 1020.0
20260830130020 68 211 3.0 7.0 0.00 0.00 0.00 76 1020.0
20260830125521 67 235 3.0 8.0 0.00 0.00 0.00 76 1020.0
20260830125018 67 221 4.0 9.0 0.00 0.00 0.00 76 1020.1
20260830124517 67 201 3.0 9.0 0.00 0.00 0.00 76 1020.2
20260830124016 67 228 4.0 8.0 0.00 0.00 0.00 77 1020.3
20260830123518 66 206 3.0 8.0 0.00 0.00 0.00 77 1020.3
20260830123024 66 212 2.0 6.0 0.00 0.00 0.00 77 1020.2
20260830122514 65 211 3.0 6.0 0.00 0.00 0.00 78 1020.2
20260830122011 65 196 3.0 7.0 0.00 0.00 0.00 78 1020.2
20260830121511 65 214 2.0 7.0 0.00 0.00 0.00 79 1020.2
20260830121009 64 220 3.0 9.0 0.00 0.00 0.00 79 1020.3
20260830120508 64 224 3.0 9.0 0.00 0.00 0.00 79 1020.2
20260830120008 64 216 2.0 7.0 0.00 0.00 0.00 80 1020.3
20260830115507 63 222 3.0 8.0 0.00 0.00 0.00 80 1020.2
20260830115007 63 221 3.0 8.0 0.00 0.00 0.00 81 1020.4
20260830114504 63 201 3.0 6.0 0.00 0.00 0.00 81 1020.5
20260830114004 62 212 2.0 5.0 0.00 0.00 0.00 82 1020.6
20260830113501 62 210 1.0 5.0 0.00 0.00 0.00 82 1020.5
20260830113000 62 206 2.0 5.0 0.00 0.00 0.00 83 1020.5
20260830112559 61 227 2.0 6.0 0.00 0.00 0.00 83 1020.6
20260830112058 61 214 3.0 6.0 0.00 0.00 0.00 83 1020.5
20260830111557 61 218 2.0 5.0 0.00 0.00 0.00 83 1020.5
20260830111056 61 216 1.0 5.0 0.00 0.00 0.00 83 1020.4
20260830110556 61 214 2.0 4.0 0.00 0.00 0.00 83 1020.4
20260830110101 60 214 1.0 7.0 0.00 0.00 0.00 83 1020.4
20260830105556 60 214 2.0 7.0 0.00 0.00 0.00 83 1020.4
20260830105055 60 218 2.0 6.0 0.00 0.00 0.00 83 1020.4
20260830104554 60 224 1.0 5.0 0.00 0.00 0.00 83 1020.3
20260830104053 60 224 1.0 4.0 0.00 0.00 0.00 83 1020.3
20260830103552 60 225 1.0 4.0 0.00 0.00 0.00 83 1020.3
20260830103052 60 225 2.0 4.0 0.00 0.00 0.00 83 1020.3
20260830102551 60 225 1.0 4.0 0.00 0.00 0.00 83 1020.3
20260830102050 60 225 2.0 5.0 0.00 0.00 0.00 83 1020.4
20260830101550 60 225 2.0 4.0 0.00 0.00 0.00 83 1020.4
20260830101053 60 228 1.0 7.0 0.00 0.00 0.00 82 1020.4
20260830100551 60 214 2.0 7.0 0.00 0.00 0.00 83 1020.4
20260830100101 60 170 3.0 6.0 0.00 0.00 0.00 82 1020.3
20260830095552 60 158 1.0 5.0 0.00 0.00 0.00 82 1020.4
20260830095051 60 221 1.0 4.0 0.00 0.00 0.00 83 1020.3
20260830094548 60 220 2.0 5.0 0.00 0.00 0.00 83 1020.2
20260830094046 60 221 2.0 5.0 0.00 0.00 0.00 83 1020.3
20260830093547 60 232 1.0 5.0 0.00 0.00 0.00 84 1020.3